NOAA 17 [-]

Last updated on Fri Dec 29 2023 00:02:19 GMT+0000 (Coordinated Universal Time)

1 27453U 02032A 23361.89359068 .00000338 00000+0 16193-3 0 9997 2 27453 98.7420 307.8087 0012860 88.7342 271.5310 14.25448902118407
UTC large
Height (km)
Speed (km/s)
/
Latitude / Longitude
Inclination (degrees)
Orbital Period (minutes)
Azimuth
Elevation
Range (km)
Doppler Factor

Next 0 passes for location: London (51.5072 / 0.1276)

Sorry there are no passes over London.